KC0PSR Weather Reports


time (UTC)temp
F
wind
direction
speed
knots
gust
knots
rain 1hr
in
rain 24hr
in
rain mn
in
humidity
%
barometer
mb
20260507001048 48 5 1.7 4.3 0.00 0.00 0.00 46 1014.9
20260507000546 47 288 0.9 3.5 0.00 0.00 0.00 47 1015.0
20260507000057 47 42 0.9 5.2 0.00 0.00 0.00 48 1015.2
20260506235548 47 355 1.7 5.2 0.00 0.00 0.00 47 1015.2
20260506235048 47 34 0.9 4.3 0.00 0.00 0.00 50 1015.2
20260506234624 47 329 0.9 6.1 0.00 0.00 0.00 48 1015.3
20260506234049 47 11 0.9 6.1 0.00 0.00 0.00 48 1015.2
20260506233549 48 0 1.7 10.4 0.00 0.00 0.00 48 1015.4
20260506233056 48 65 3.5 10.4 0.00 0.00 0.00 47 1015.5
20260506232549 48 317 0.9 4.3 0.00 0.00 0.00 46 1015.5
20260506232048 48 18 0.9 9.6 0.00 0.00 0.00 49 1015.5
20260506231555 48 277 2.6 9.6 0.00 0.00 0.00 49 1015.5
20260506231052 48 275 0.9 11.3 0.00 0.00 0.00 47 1015.4
20260506230553 48 12 4.3 11.3 0.00 0.00 0.00 46 1015.5
20260506230058 48 9 5.2 11.3 0.00 0.00 0.00 47 1015.6
20260506225551 49 15 2.6 7.8 0.00 0.00 0.00 47 1015.5
20260506225048 49 27 0.9 5.2 0.00 0.00 0.00 45 1015.6
20260506224553 49 294 1.7 4.3 0.00 0.00 0.00 45 1015.5
20260506224046 48 238 0.9 4.3 0.00 0.00 0.00 46 1015.5
20260506223548 48 250 1.7 7.0 0.00 0.00 0.00 47 1015.6
20260506223100 48 22 0.9 7.0 0.00 0.00 0.00 45 1015.5
20260506222550 48 16 1.7 7.0 0.00 0.00 0.00 47 1015.6
20260506222049 48 76 2.6 7.0 0.00 0.00 0.00 45 1015.7
20260506221555 49 170 0.9 7.8 0.00 0.00 0.00 45 1015.7
20260506221047 49 129 0.9 7.8 0.00 0.00 0.00 48 1015.8
20260506220551 49 157 2.6 7.8 0.00 0.00 0.00 46 1015.8
20260506220055 49 175 2.6 7.0 0.00 0.00 0.00 46 1015.8
20260506215550 49 215 1.7 7.0 0.00 0.00 0.00 48 1015.8
20260506215051 49 304 3.5 7.0 0.00 0.00 0.00 45 1015.9
20260506214554 49 187 1.7 8.7 0.00 0.00 0.00 48 1015.9
20260506214051 48 101 2.6 8.7 0.00 0.00 0.00 46 1016.0
20260506213552 48 277 1.7 7.0 0.00 0.00 0.00 45 1016.0
20260506213055 48 246 1.7 8.7 0.00 0.00 0.00 49 1016.0
20260506212550 48 273 3.5 10.4 0.00 0.00 0.00 47 1016.0
20260506212048 48 266 1.7 10.4 0.00 0.00 0.00 49 1016.1
20260506211554 48 311 3.5 8.7 0.00 0.00 0.00 47 1016.1
20260506211050 48 165 0.9 7.8 0.00 0.00 0.00 49 1016.3
20260506210548 48 188 1.7 14.8 0.00 0.00 0.00 50 1016.3
20260506210055 48 246 7.8 14.8 0.00 0.00 0.00 47 1016.4
20260506205548 49 273 1.7 8.7 0.00 0.00 0.00 47 1016.4
20260506205048 48 0 2.6 9.6 0.00 0.00 0.00 47 1016.5
20260506204600 48 250 1.7 9.6 0.00 0.00 0.00 50 1016.7
20260506204047 47 275 1.7 8.7 0.00 0.00 0.00 50 1016.6
20260506203550 47 339 1.7 8.7 0.00 0.00 0.00 47 1016.6
20260506203053 47 253 4.3 8.7 0.00 0.00 0.00 48 1016.8
20260506202554 47 251 0.9 7.8 0.00 0.00 0.00 50 1016.7
20260506202053 47 138 2.6 12.2 0.00 0.00 0.00 47 1016.8
20260506201556 47 45 4.3 12.2 0.00 0.00 0.00 45 1016.8
20260506201051 48 246 1.7 7.0 0.00 0.00 0.00 48 1017.0
20260506200554 48 309 1.7 9.6 0.00 0.00 0.00 50 1016.8
20260506200107 48 9 0.9 9.6 0.00 0.00 0.00 48 1016.8
20260506195553 47 209 5.2 9.6 0.00 0.00 0.00 48 1016.9
20260506195051 47 214 2.6 9.6 0.00 0.00 0.00 48 1017.0
20260506194606 47 184 2.6 9.6 0.00 0.00 0.00 50 1017.0
20260506194047 46 143 1.7 8.7 0.00 0.00 0.00 47 1017.0
20260506193547 46 26 1.7 8.7 0.00 0.00 0.00 53 1017.2
20260506193054 46 46 1.7 7.8 0.00 0.00 0.00 48 1017.1
20260506192547 46 28 4.3 7.8 0.00 0.00 0.00 48 1017.1
20260506192051 46 249 1.7 7.0 0.00 0.00 0.00 48 1017.1
20260506191556 46 130 2.6 7.0 0.00 0.00 0.00 48 1017.1
20260506191053 46 257 1.7 8.7 0.00 0.00 0.00 50 1017.1
20260506190550 46 360 2.6 12.2 0.00 0.00 0.00 49 1017.3
20260506190054 46 327 4.3 12.2 0.00 0.00 0.00 50 1017.2
20260506185548 46 272 2.6 8.7 0.00 0.00 0.00 48 1017.3
20260506185052 46 257 1.7 7.8 0.00 0.00 0.00 51 1017.2
20260506184559 46 261 2.6 11.3 0.00 0.00 0.00 50 1017.3
20260506184050 46 0 1.7 11.3 0.00 0.00 0.00 46 1017.3
20260506183551 46 319 2.6 14.8 0.00 0.00 0.00 50 1017.3
20260506183102 46 319 2.6 14.8 0.00 0.00 0.00 48 1017.4
20260506182548 46 67 3.5 11.3 0.00 0.00 0.00 48 1017.3
20260506182047 46 209 2.6 11.3 0.00 0.00 0.00 50 1017.5
20260506181559 46 144 3.5 8.7 0.00 0.00 0.00 53 1017.6
20260506181051 45 360 1.7 8.7 0.00 0.00 0.00 50 1017.4
20260506180552 45 324 2.6 8.7 0.00 0.00 0.00 50 1017.5
20260506180055 45 5 2.6 8.7 0.00 0.00 0.00 52 1017.7
20260506175548 45 208 3.5 8.7 0.00 0.00 0.00 50 1017.9
20260506175050 45 151 1.7 12.2 0.00 0.00 0.00 51 1017.7
20260506174554 44 271 5.2 12.2 0.00 0.00 0.00 51 1017.8
20260506174048 44 189 6.1 11.3 0.00 0.00 0.00 53 1017.8
20260506173551 44 252 2.6 10.4 0.00 0.00 0.00 52 1018.0
20260506173108 44 321 1.7 9.6 0.00 0.00 0.00 52 1017.9
20260506172548 44 347 4.3 9.6 0.00 0.00 0.00 51 1018.0
20260506172049 44 42 2.6 8.7 0.00 0.00 0.00 53 1018.1
20260506171600 44 110 2.6 10.4 0.00 0.00 0.00 52 1018.1
20260506171048 44 307 3.5 10.4 0.00 0.00 0.00 55 1018.2
20260506170549 43 32 2.6 7.0 0.00 0.00 0.00 54 1018.2
20260506170053 44 61 1.7 11.3 0.00 0.00 0.00 54 1018.2
20260506165549 44 5 1.7 11.3 0.00 0.00 0.00 56 1018.2
20260506165049 43 258 1.7 7.0 0.00 0.00 0.00 54 1018.3
20260506164557 43 261 1.7 11.3 0.00 0.00 0.00 54 1018.4
20260506164048 43 256 1.7 11.3 0.00 0.00 0.00 52 1018.6
20260506163550 43 251 2.6 10.4 0.00 0.00 0.00 53 1018.4
20260506163055 43 277 1.7 8.7 0.00 0.00 0.00 56 1018.4
20260506162549 43 123 2.6 8.7 0.00 0.00 0.00 53 1018.4
20260506162050 44 49 1.7 8.7 0.00 0.00 0.00 58 1018.3
20260506161605 43 350 1.7 7.8 0.00 0.00 0.00 56 1018.4
20260506161047 43 36 0.9 7.8 0.00 0.00 0.00 57 1018.4
20260506160551 42 48 2.6 7.8 0.00 0.00 0.00 56 1018.6
20260506160058 42 12 1.7 7.8 0.00 0.00 0.00 56 1018.6
20260506155552 42 5 1.7 7.8 0.00 0.00 0.00 57 1018.6
20260506155050 41 258 1.7 7.0 0.00 0.00 0.00 57 1018.5
20260506154556 41 66 1.7 4.3 0.00 0.00 0.00 58 1018.5
20260506154049 41 15 1.7 7.0 0.00 0.00 0.00 58 1018.5
20260506153550 41 290 1.7 7.0 0.00 0.00 0.00 58 1018.5
20260506153052 41 360 1.7 7.0 0.00 0.00 0.00 59 1018.5
20260506152549 41 0 0.9 5.2 0.00 0.00 0.00 61 1018.5
20260506152050 41 28 0.9 7.8 0.00 0.00 0.00 60 1018.4
20260506151606 40 71 1.7 7.8 0.00 0.00 0.00 61 1018.6
20260506151050 40 150 0.9 7.8 0.00 0.00 0.00 62 1018.5
20260506150550 40 0 1.7 7.8 0.00 0.00 0.00 61 1018.5
20260506150052 40 13 0.9 5.2 0.00 0.00 0.00 62 1018.5
20260506145548 40 42 0.9 6.1 0.00 0.00 0.00 62 1018.5
20260506145047 39 234 0.9 6.1 0.00 0.00 0.00 62 1018.5
20260506144603 39 15 1.7 6.1 0.00 0.00 0.00 63 1018.4
20260506144047 39 5 0.9 6.1 0.00 0.00 0.00 66 1018.4
20260506143549 39 30 1.7 7.8 0.00 0.00 0.00 65 1018.4
20260506143100 39 316 0.0 7.8 0.00 0.00 0.00 66 1018.4
20260506142547 39 308 1.7 7.8 0.00 0.00 0.00 65 1018.5
20260506142049 38 237 0.0 7.0 0.00 0.00 0.00 68 1018.5
20260506141550 38 0 1.7 7.0 0.00 0.00 0.00 67 1018.5
20260506141048 38 332 0.9 3.5 0.00 0.00 0.00 68 1018.5
20260506140550 38 0 0.9 5.2 0.00 0.00 0.00 67 1018.4
20260506140104 38 261 0.0 5.2 0.00 0.00 0.00 68 1018.4
20260506135548 38 165 0.9 5.2 0.00 0.00 0.00 68 1018.4
20260506135049 37 311 0.9 2.6 0.00 0.00 0.00 69 1018.4
20260506134557 37 226 0.9 3.5 0.00 0.00 0.00 69 1018.4
20260506134050 37 225 0.9 4.3 0.00 0.00 0.00 69 1018.3
20260506133549 37 342 0.9 4.3 0.00 0.00 0.00 69 1018.2
20260506133100 37 5 0.0 3.5 0.00 0.00 0.00 69 1018.2
20260506132548 37 71 0.9 3.5 0.00 0.00 0.00 69 1018.2
20260506132047 37 0 0.9 3.5 0.00 0.00 0.00 69 1018.1
20260506131601 37 105 0.9 3.5 0.00 0.00 0.00 69 1018.2
20260506131048 37 0 0.9 3.5 0.00 0.00 0.00 69 1018.1
20260506130550 37 72 0.0 3.5 0.00 0.00 0.00 69 1018.1
20260506130120 37 0 0.0 3.5 0.00 0.00 0.00 69 1018.1
20260506125548 37 103 0.0 3.5 0.00 0.00 0.00 69 1018.0
20260506125048 37 341 0.9 3.5 0.00 0.00 0.00 69 1017.9
20260506124553 36 284 0.0 3.5 0.00 0.00 0.00 69 1017.8
20260506124051 36 0 0.0 3.5 0.00 0.00 0.00 70 1017.8
20260506123552 36 153 0.9 2.6 0.00 0.00 0.00 70 1017.7
20260506123051 36 0 0.0 2.6 0.00 0.00 0.00 71 1017.6
20260506122548 36 0 0.0 3.5 0.00 0.00 0.00 71 1017.5
20260506122049 36 0 0.0 3.5 0.00 0.00 0.00 71 1017.5
20260506121555 36 323 0.9 2.6 0.00 0.00 0.00 72 1017.4
20260506121048 36 0 0.0 2.6 0.00 0.00 0.00 72 1017.4
20260506120550 35 284 0.9 3.5 0.00 0.00 0.00 72 1017.3
20260506120100 35 280 0.9 3.5 0.00 0.00 0.00 73 1017.1
20260506115550 35 281 0.0 2.6 0.00 0.00 0.00 73 1017.2
20260506115050 35 0 0.0 1.7 0.00 0.00 0.00 73 1017.0
20260506114550 35 0 0.0 2.6 0.00 0.00 0.00 73 1016.8
20260506114050 35 0 0.0 2.6 0.00 0.00 0.00 73 1016.9
20260506113547 35 128 0.0 1.7 0.00 0.00 0.00 73 1016.8
20260506113058 35 0 0.0 1.7 0.00 0.00 0.00 73 1016.8
20260506112551 35 0 0.0 1.7 0.00 0.00 0.00 73 1016.7
20260506112050 35 236 0.0 2.6 0.00 0.00 0.00 72 1016.7
20260506111554 35 0 0.0 2.6 0.00 0.00 0.00 72 1016.6
20260506111050 35 0 0.0 1.7 0.00 0.00 0.00 73 1016.6
20260506110550 35 0 0.0 1.7 0.00 0.00 0.00 72 1016.5
20260506105548 35 360 0.0 1.7 0.00 0.00 0.00 72 1016.5
20260506105049 35 0 0.0 1.7 0.00 0.00 0.00 71 1016.4
20260506104613 35 279 0.0 1.7 0.00 0.00 0.00 72 1016.4
20260506104048 35 0 0.0 1.7 0.00 0.00 0.00 72 1016.5
20260506103548 35 0 0.0 1.7 0.00 0.00 0.00 72 1016.5
20260506103054 35 0 0.0 2.6 0.00 0.00 0.00 72 1016.5
20260506102548 35 0 0.0 5.2 0.00 0.00 0.00 72 1016.6
20260506102047 35 260 1.7 5.2 0.00 0.00 0.00 72 1016.6
20260506101602 35 254 0.9 2.6 0.00 0.00 0.00 73 1016.5
20260506101048 35 0 0.0 0.9 0.00 0.00 0.00 73 1016.5
20260506100550 35 0 0.0 0.9 0.00 0.00 0.00 73 1016.5
20260506100055 35 255 0.0 1.7 0.00 0.00 0.00 73 1016.6
20260506095552 35 0 0.0 1.7 0.00 0.00 0.00 72 1016.5
20260506095048 35 0 0.0 1.7 0.00 0.00 0.00 71 1016.4
20260506094558 35 255 0.0 2.6 0.00 0.00 0.00 71 1016.3
20260506094047 35 0 0.0 2.6 0.00 0.00 0.00 71 1016.3
20260506093548 35 277 0.0 3.5 0.00 0.00 0.00 71 1016.6
20260506093100 35 0 0.9 3.5 0.00 0.00 0.00 71 1016.5
20260506092548 35 238 0.9 2.6 0.00 0.00 0.00 71 1016.4
20260506092048 35 0 0.9 1.7 0.00 0.00 0.00 71 1016.4
20260506091551 35 98 0.0 2.6 0.00 0.00 0.00 71 1016.4
20260506091050 35 0 0.0 2.6 0.00 0.00 0.00 71 1016.3
20260506090555 35 295 0.0 2.6 0.00 0.00 0.00 71 1016.2
20260506090056 35 94 0.0 3.5 0.00 0.00 0.00 70 1016.2
20260506085547 35 232 0.9 3.5 0.00 0.00 0.00 70 1016.2
20260506085048 35 163 0.0 3.5 0.00 0.00 0.00 70 1016.2
20260506084554 35 213 0.0 2.6 0.00 0.00 0.00 70 1016.1
20260506084047 35 307 0.0 3.5 0.00 0.00 0.00 70 1016.0
20260506083549 35 253 0.9 3.5 0.00 0.00 0.00 70 1016.1
20260506083056 35 0 0.0 3.5 0.00 0.00 0.00 70 1016.1
20260506082549 35 0 0.0 2.6 0.00 0.00 0.00 70 1016.1
20260506082053 35 203 0.0 3.5 0.00 0.00 0.00 70 1016.1
20260506081556 35 338 0.9 3.5 0.00 0.00 0.00 70 1016.0
20260506081048 35 132 0.9 4.3 0.00 0.00 0.00 70 1016.1
20260506080548 35 111 0.9 4.3 0.00 0.00 0.00 71 1016.0
20260506073104 34 0 0.9 2.6 0.00 0.00 0.00 74 1016.1
20260506072547 33 138 0.9 2.6 0.00 0.00 0.00 75 1016.2
20260506072050 33 121 0.0 2.6 0.00 0.00 0.00 75 1016.2
20260506071610 33 124 0.9 2.6 0.00 0.00 0.00 76 1016.1
20260506071052 33 0 0.0 1.7 0.00 0.00 0.00 76 1016.3
20260506070548 33 0 0.0 1.7 0.00 0.00 0.00 75 1016.2
20260506062048 33 0 0.0 1.7 0.00 0.00 0.00 71 1016.0
20260506061557 33 333 0.0 1.7 0.00 0.00 0.00 71 1016.1
20260506061050 34 0 0.0 0.9 0.00 0.00 0.00 70 1016.1
20260506060547 34 0 0.0 0.0 0.00 0.00 0.00 70 1016.0
20260506051052 36 0 0.0 0.9 0.00 0.00 0.00 66 1015.7
20260506050547 36 0 0.0 0.9 0.00 0.00 0.00 67 1015.7
20260506045048 36 333 0.0 1.7 0.00 0.00 0.00 67 1015.6
20260506044600 37 325 0.0 0.9 0.00 0.00 0.00 67 1015.5
20260506044049 37 0 0.0 0.9 0.00 0.00 0.00 66 1015.7
20260506043549 37 0 0.0 0.9 0.00 0.00 0.00 67 1015.7
20260506043053 37 0 0.0 0.9 0.00 0.00 0.00 66 1015.6
20260506042548 37 325 0.0 0.9 0.00 0.00 0.00 66 1015.6
20260506042050 37 0 0.0 2.6 0.00 0.00 0.00 66 1015.6
20260506041604 37 0 0.0 2.6 0.00 0.00 0.00 66 1015.5
20260506041048 37 0 0.0 1.7 0.00 0.00 0.00 66 1015.6
20260506040547 37 0 0.0 1.7 0.00 0.00 0.00 65 1015.5
20260506040054 37 0 0.0 1.7 0.00 0.00 0.00 65 1015.6
20260506035549 37 0 0.0 0.9 0.00 0.00 0.00 65 1015.5
20260506035049 37 0 0.0 0.9 0.00 0.00 0.00 64 1015.5
20260506034549 38 0 0.0 0.9 0.00 0.00 0.00 64 1015.3
20260506034046 38 0 0.0 0.9 0.00 0.00 0.00 64 1015.3
20260506033551 38 0 0.0 0.9 0.00 0.00 0.00 63 1015.2
20260506033054 38 0 0.0 0.9 0.00 0.00 0.00 63 1015.1
20260506032548 38 0 0.0 3.5 0.00 0.00 0.00 62 1015.1
20260506032048 38 0 0.0 3.5 0.00 0.00 0.00 62 1015.0
20260506031557 39 318 0.0 1.7 0.00 0.00 0.00 62 1015.0
20260506031050 39 0 0.0 0.9 0.00 0.00 0.00 62 1014.9
20260506030552 39 0 0.0 1.7 0.00 0.00 0.00 62 1014.9
20260506030052 39 0 0.0 1.7 0.00 0.00 0.00 62 1014.8
20260506025549 39 0 0.0 1.7 0.00 0.00 0.00 62 1014.8
20260506025048 40 0 0.0 0.9 0.00 0.00 0.00 62 1014.8
20260506024549 40 0 0.0 0.9 0.00 0.00 0.00 61 1014.6
20260506024048 40 0 0.0 0.9 0.00 0.00 0.00 61 1014.7
20260506023551 40 0 0.0 0.9 0.00 0.00 0.00 60 1014.5
20260506023052 40 0 0.0 1.7 0.00 0.00 0.00 60 1014.5
20260506022548 41 0 0.0 1.7 0.00 0.00 0.00 60 1014.3
20260506022048 41 10 0.0 1.7 0.00 0.00 0.00 60 1014.4
20260506021556 41 0 0.9 2.6 0.00 0.00 0.00 60 1014.4
20260506021047 41 10 0.9 2.6 0.00 0.00 0.00 60 1014.3
20260506020547 41 10 0.0 1.7 0.00 0.00 0.00 59 1014.2
20260506020054 42 10 0.0 0.9 0.00 0.00 0.00 58 1014.2
20260506015552 42 0 0.0 0.9 0.00 0.00 0.00 57 1014.1
20260506015046 42 0 0.0 2.6 0.00 0.00 0.00 57 1014.0
20260506014554 42 0 0.0 2.6 0.00 0.00 0.00 57 1013.9
20260506014046 42 10 0.9 2.6 0.00 0.00 0.00 56 1013.9
20260506013547 42 10 0.9 2.6 0.00 0.00 0.00 55 1014.0
20260506013050 43 10 0.0 2.6 0.00 0.00 0.00 55 1013.9
20260506012547 43 338 0.0 2.6 0.00 0.00 0.00 56 1013.8
20260506012048 43 0 0.0 4.3 0.00 0.00 0.00 55 1013.8
20260506011550 43 5 0.9 8.7 0.00 0.00 0.00 55 1013.7
20260506011047 43 360 0.9 8.7 0.00 0.00 0.00 55 1013.8
20260506010550 43 9 2.6 8.7 0.00 0.00 0.00 53 1013.8
20260506010052 44 5 2.6 3.5 0.00 0.00 0.00 52 1013.8
20260506005547 44 12 0.9 3.5 0.00 0.00 0.00 51 1013.8
20260506005048 44 169 0.9 3.5 0.00 0.00 0.00 50 1013.8
20260506004555 44 295 0.9 3.5 0.00 0.00 0.00 50 1013.6
20260506004047 45 355 0.0 3.5 0.00 0.00 0.00 51 1013.8
20260506003547 45 188 0.0 4.3 0.00 0.00 0.00 51 1013.6
20260506003054 45 0 0.0 7.0 0.00 0.00 0.00 50 1013.6
20260506002547 45 346 0.9 7.0 0.00 0.00 0.00 50 1013.5
20260506002048 45 242 1.7 7.0 0.00 0.00 0.00 50 1013.4
20260506001612 45 325 0.9 4.3 0.00 0.00 0.00 51 1013.4